Simultaneous Nadir Overpasses (SNOs) Predictions

Prediction of SNOs between LANDSAT-8 and METOP-B Satellite Orbit:

Table of predicted SNOs for the next 14.0 days since TLE Epoch: 11/11/2023
Index Date (LANDSAT-8) Time (LANDSAT-8) Lat,Lon (LANDSAT-8) SZA (LANDSAT-8 ) Date (METOP-B) Time (METOP-B) Lat,Lon (METOP-B) SZA (METOP-B ) Distance(km) Time Diff (sec)
1 11/12/2023 03:05:43 81.25, 175.61 101.39 11/12/2023 03:04:53 81.25, 175.57 101.37 0.74 50
2 11/12/2023 03:55:09 -81.27, -16.45 78.56 11/12/2023 03:55:32 -81.27, -16.37 78.54 1.37 23
3 11/14/2023 22:40:01 81.24,-118.16 102.10 11/14/2023 22:39:13 81.25,-118.02 102.10 2.43 48
4 11/14/2023 23:29:27 -81.26, 49.81 77.85 11/14/2023 23:29:53 -81.26, 49.67 77.85 2.36 26
5 11/17/2023 18:14:17 81.26, -51.41 102.83 11/17/2023 18:13:32 81.26, -51.33 102.82 1.35 45
6 11/17/2023 19:03:44 -81.26, 116.20 77.17 11/17/2023 19:04:12 -81.27, 116.37 77.13 3.06 28
7 11/20/2023 13:48:32 81.27, 15.10 103.48 11/20/2023 13:47:50 81.26, 15.25 103.48 2.67 42
8 11/20/2023 14:37:59 -81.26,-177.27 76.52 11/20/2023 14:38:31 -81.26,-177.41 76.52 2.36 32
9 11/23/2023 09:22:48 81.26, 81.36 104.05 11/23/2023 09:22:10 81.25, 81.35 104.03 0.24 38



Historial Predications of SNOs between LANDSAT-8 and METOP-B
